Location: Chomutov
(50.4500°N, 13.4333°E)
Time: 01:53:19
(UTC+02:00)

FO-29 - Pass Details

Date: 04 October 2021
Orbit: 800 x 1321 km, 98.6° (Epoch: 27 October)

Event Time Altitude Azimuth Distance (km) Brightness Sun altitude
Exits shadow 19:54:48 16° 104° (ESE) 2,876 11.3 -13.1°
Maximum altitude 19:59:40 31° 55° (NE) 2,154 10.9 -13.9°
Drops below altitude 10° 20:06:07 10° 359° (N) 3,292 12.4 -14.9°
Sets 20:09:05 0° 349° (N) 4,215 13.1 -15.3°
